Time,TemperatureF,DewpointF,PressureIn,WindDirection,WindDirectionDegrees,WindSpeedMPH,WindSpeedGustMPH,Humidity,HourlyPrecipIn,Conditions,Clouds,dailyrainin,SoftwareType,DateUTC
2013-03-03 00:01:00,21.0,14.3,29.43,NNW,348,0.0,0.0,75,0.00,,---,0.00,VWS V12.08,2013-03-03 06:01:00,
2013-03-03 00:06:00,21.1,14.1,29.43,NNW,348,0.0,0.0,74,0.00,,---,0.00,VWS V12.08,2013-03-03 06:06:00,
2013-03-03 00:11:00,21.2,14.2,29.43,NNW,348,0.0,0.0,74,0.00,,---,0.00,VWS V12.08,2013-03-03 06:11:00,
2013-03-03 00:16:00,21.0,14.0,29.43,NNW,348,0.0,0.0,74,0.00,,---,0.00,VWS V12.08,2013-03-03 06:16:00,
2013-03-03 00:21:00,20.8,13.8,29.43,NNW,348,0.0,0.0,74,0.00,,---,0.00,VWS V12.08,2013-03-03 06:21:00,
2013-03-03 00:26:00,20.7,13.4,29.43,NNW,348,0.0,0.0,73,0.00,,---,0.00,VWS V12.08,2013-03-03 06:26:00,
2013-03-03 00:31:00,20.7,13.4,29.43,NNW,348,0.0,0.0,73,0.00,,---,0.00,VWS V12.08,2013-03-03 06:31:00,
2013-03-03 00:36:00,20.6,13.3,29.43,NNW,348,0.0,0.0,73,0.00,,---,0.00,VWS V12.08,2013-03-03 06:36:00,
2013-03-03 00:41:00,20.5,13.2,29.43,NNW,348,0.0,0.0,73,0.00,,---,0.00,VWS V12.08,2013-03-03 06:41:00,
2013-03-03 00:46:00,20.3,12.7,29.43,NNW,348,0.0,0.0,72,0.00,,---,0.00,VWS V12.08,2013-03-03 06:46:00,
2013-03-03 00:51:00,20.0,12.8,29.42,NNW,348,0.0,0.0,73,0.00,,---,0.00,VWS V12.08,2013-03-03 06:51:00,
2013-03-03 00:56:00,19.8,12.6,29.43,NNW,348,0.0,0.0,73,0.00,,---,0.00,VWS V12.08,2013-03-03 06:56:00,
2013-03-03 01:01:00,19.7,12.5,29.43,NNW,348,0.0,0.0,73,0.00,,---,0.00,VWS V12.08,2013-03-03 07:01:00,
2013-03-03 01:06:00,19.7,12.5,29.42,NNW,348,0.0,0.0,73,0.00,,---,0.00,VWS V12.08,2013-03-03 07:06:00,
2013-03-03 01:11:00,19.7,12.5,29.43,NNW,348,0.0,0.0,73,0.00,,---,0.00,VWS V12.08,2013-03-03 07:11:00,
2013-03-03 01:16:00,19.8,12.9,29.43,NNW,348,0.0,0.0,74,0.00,,---,0.00,VWS V12.08,2013-03-03 07:16:00,
2013-03-03 01:21:00,19.9,13.0,29.43,NNW,348,0.0,0.0,74,0.00,,---,0.00,VWS V12.08,2013-03-03 07:21:00,
2013-03-03 01:26:00,19.9,13.0,29.43,NNW,348,0.0,0.0,74,0.00,,---,0.00,VWS V12.08,2013-03-03 07:26:00,
2013-03-03 01:31:00,20.0,13.1,29.42,NNW,348,0.0,0.0,74,0.00,,---,0.00,VWS V12.08,2013-03-03 07:31:00,
2013-03-03 01:36:00,20.1,13.2,29.42,NNW,348,0.0,0.0,74,0.00,,---,0.00,VWS V12.08,2013-03-03 07:36:00,
2013-03-03 01:42:00,20.4,13.4,29.43,NNW,348,0.0,0.0,74,0.00,,---,0.00,VWS V12.08,2013-03-03 07:42:00,
2013-03-03 01:48:00,20.5,13.5,29.42,NNW,348,0.0,0.0,74,0.00,,---,0.00,VWS V12.08,2013-03-03 07:48:00,
2013-03-03 01:53:00,20.6,13.6,29.42,NNW,348,0.0,0.0,74,0.00,,---,0.00,VWS V12.08,2013-03-03 07:53:00,
2013-03-03 01:59:00,20.5,13.2,29.41,NNW,348,0.0,0.0,73,0.00,,---,0.00,VWS V12.08,2013-03-03 07:59:00,
2013-03-03 02:05:00,20.4,13.1,29.41,NNW,348,0.0,0.0,73,0.00,,---,0.00,VWS V12.08,2013-03-03 08:05:00,
2013-03-03 02:10:00,20.3,13.0,29.40,NNW,348,0.0,0.0,73,0.00,,---,0.00,VWS V12.08,2013-03-03 08:10:00,
2013-03-03 02:15:00,20.3,13.0,29.40,NNW,348,0.0,0.0,73,0.00,,---,0.00,VWS V12.08,2013-03-03 08:15:00,
2013-03-03 02:20:00,20.3,13.0,29.40,NNW,348,0.0,0.0,73,0.00,,---,0.00,VWS V12.08,2013-03-03 08:20:00,
2013-03-03 02:25:00,20.4,13.1,29.40,NNW,348,0.0,0.0,73,0.00,,---,0.00,VWS V12.08,2013-03-03 08:25:00,
2013-03-03 02:30:00,20.4,13.1,29.40,NNW,348,0.0,0.0,73,0.00,,---,0.00,VWS V12.08,2013-03-03 08:30:00,
2013-03-03 02:35:00,20.4,13.1,29.40,NNW,348,0.0,0.0,73,0.00,,---,0.00,VWS V12.08,2013-03-03 08:35:00,
2013-03-03 02:40:00,20.4,13.1,29.39,NNW,348,0.0,0.0,73,0.00,,---,0.00,VWS V12.08,2013-03-03 08:40:00,
2013-03-03 02:46:00,20.4,13.1,29.39,NNW,348,0.0,0.0,73,0.00,,---,0.00,VWS V12.08,2013-03-03 08:46:00,
2013-03-03 02:51:00,20.3,13.0,29.38,NNW,348,0.0,0.0,73,0.00,,---,0.00,VWS V12.08,2013-03-03 08:51:00,
2013-03-03 02:57:00,20.1,12.9,29.39,NNW,348,0.0,0.0,73,0.00,,---,0.00,VWS V12.08,2013-03-03 08:57:00,
2013-03-03 03:02:00,20.1,12.9,29.38,NNW,348,0.0,0.0,73,0.00,,---,0.00,VWS V12.08,2013-03-03 09:02:00,
2013-03-03 03:07:00,20.0,12.8,29.38,NNW,348,0.0,0.0,73,0.00,,---,0.00,VWS V12.08,2013-03-03 09:07:00,
2013-03-03 03:13:00,20.1,12.9,29.38,NNW,348,0.0,0.0,73,0.00,,---,0.00,VWS V12.08,2013-03-03 09:13:00,
2013-03-03 03:18:00,20.1,12.9,29.38,NNW,348,0.0,0.0,73,0.00,,---,0.00,VWS V12.08,2013-03-03 09:18:00,
2013-03-03 03:23:00,20.3,13.0,29.38,NNW,348,0.0,0.0,73,0.00,,---,0.00,VWS V12.08,2013-03-03 09:23:00,
2013-03-03 03:28:00,20.4,13.4,29.38,NNW,348,0.0,0.0,74,0.00,,---,0.00,VWS V12.08,2013-03-03 09:28:00,
2013-03-03 03:34:00,20.5,13.2,29.37,NNW,348,0.0,0.0,73,0.00,,---,0.00,VWS V12.08,2013-03-03 09:34:00,
2013-03-03 03:39:00,20.6,13.3,29.37,NNW,348,0.0,0.0,73,0.00,,---,0.00,VWS V12.08,2013-03-03 09:39:00,
2013-03-03 03:44:00,20.6,13.3,29.37,NNW,348,0.0,0.0,73,0.00,,---,0.00,VWS V12.08,2013-03-03 09:44:00,
2013-03-03 03:49:00,20.5,13.2,29.37,NNW,348,0.0,0.0,73,0.00,,---,0.00,VWS V12.08,2013-03-03 09:49:00,
2013-03-03 03:54:00,20.5,13.5,29.37,NNW,348,0.0,0.0,74,0.00,,---,0.00,VWS V12.08,2013-03-03 09:54:00,
2013-03-03 04:00:00,20.6,13.6,29.37,NNW,348,0.0,0.0,74,0.00,,---,0.00,VWS V12.08,2013-03-03 10:00:00,
2013-03-03 04:05:00,20.6,13.6,29.37,NNW,348,0.0,0.0,74,0.00,,---,0.00,VWS V12.08,2013-03-03 10:05:00,
2013-03-03 04:10:00,20.7,13.7,29.36,NNW,348,0.0,0.0,74,0.00,,---,0.00,VWS V12.08,2013-03-03 10:10:00,
2013-03-03 04:15:00,20.9,13.6,29.37,NNW,348,0.0,0.0,73,0.00,,---,0.00,VWS V12.08,2013-03-03 10:15:00,
2013-03-03 04:21:00,21.1,13.8,29.36,NNW,348,0.0,0.0,73,0.00,,---,0.00,VWS V12.08,2013-03-03 10:21:00,
2013-03-03 04:27:00,21.2,13.9,29.36,NNW,348,0.0,0.0,73,0.00,,---,0.00,VWS V12.08,2013-03-03 10:27:00,
2013-03-03 04:32:00,21.3,13.7,29.37,NNW,348,0.0,0.0,72,0.00,,---,0.00,VWS V12.08,2013-03-03 10:32:00,
2013-03-03 04:37:00,21.2,13.6,29.37,NNW,348,0.0,0.0,72,0.00,,---,0.00,VWS V12.08,2013-03-03 10:37:00,
2013-03-03 04:43:00,21.3,13.7,29.37,NNW,348,0.0,0.0,72,0.00,,---,0.00,VWS V12.08,2013-03-03 10:43:00,
2013-03-03 04:48:00,21.3,13.7,29.37,NNW,348,0.0,0.0,72,0.00,,---,0.00,VWS V12.08,2013-03-03 10:48:00,
2013-03-03 04:56:00,21.4,13.8,29.36,NNW,348,0.0,0.0,72,0.00,,---,0.00,VWS V12.08,2013-03-03 10:56:00,
2013-03-03 05:02:00,21.4,13.8,29.37,NNW,348,0.0,0.0,72,0.00,,---,0.00,VWS V12.08,2013-03-03 11:02:00,
2013-03-03 05:07:00,21.2,13.6,29.37,NNW,348,0.0,0.0,72,0.00,,---,0.00,VWS V12.08,2013-03-03 11:07:00,
2013-03-03 05:12:00,21.1,13.5,29.37,NNW,348,0.0,0.0,72,0.00,,---,0.00,VWS V12.08,2013-03-03 11:12:00,
2013-03-03 05:17:00,21.2,13.6,29.37,NNW,348,0.0,0.0,72,0.00,,---,0.00,VWS V12.08,2013-03-03 11:17:00,
2013-03-03 05:22:00,21.2,13.9,29.37,NNW,348,0.0,0.0,73,0.00,,---,0.00,VWS V12.08,2013-03-03 11:22:00,
2013-03-03 05:28:00,21.1,13.5,29.37,NNW,348,0.0,0.0,72,0.00,,---,0.00,VWS V12.08,2013-03-03 11:28:00,
2013-03-03 05:33:00,21.0,13.4,29.37,NNW,348,0.0,0.0,72,0.00,,---,0.00,VWS V12.08,2013-03-03 11:33:00,
2013-03-03 05:39:00,20.9,13.3,29.37,NNW,348,0.0,0.0,72,0.00,,---,0.00,VWS V12.08,2013-03-03 11:39:00,
2013-03-03 05:44:00,20.8,13.2,29.37,NNW,348,0.0,0.0,72,0.00,,---,0.00,VWS V12.08,2013-03-03 11:44:00,
2013-03-03 05:50:00,20.9,13.6,29.37,NNW,348,0.0,0.0,73,0.00,,---,0.00,VWS V12.08,2013-03-03 11:50:00,
2013-03-03 05:56:00,20.9,13.6,29.37,NNW,348,0.0,0.0,73,0.00,,---,0.00,VWS V12.08,2013-03-03 11:56:00,
2013-03-03 06:01:00,20.8,13.5,29.37,NNW,348,0.0,0.0,73,0.00,,---,0.00,VWS V12.08,2013-03-03 12:01:00,
2013-03-03 06:06:00,20.9,13.6,29.37,NNW,348,0.0,0.0,73,0.00,,---,0.00,VWS V12.08,2013-03-03 12:06:00,
2013-03-03 06:12:00,21.0,13.7,29.37,NNW,348,0.0,0.0,73,0.00,,---,0.00,VWS V12.08,2013-03-03 12:12:00,
2013-03-03 06:17:00,20.9,13.6,29.38,NNW,348,0.0,0.0,73,0.00,,---,0.00,VWS V12.08,2013-03-03 12:17:00,
2013-03-03 06:22:00,21.0,13.7,29.38,NNW,348,0.0,0.0,73,0.00,,---,0.00,VWS V12.08,2013-03-03 12:22:00,
2013-03-03 06:27:00,20.9,13.6,29.37,NNW,348,0.0,0.0,73,0.00,,---,0.00,VWS V12.08,2013-03-03 12:27:00,
2013-03-03 06:32:00,21.0,13.7,29.37,NNW,348,0.0,0.0,73,0.00,,---,0.00,VWS V12.08,2013-03-03 12:32:00,
2013-03-03 06:37:00,21.0,13.7,29.37,NNW,348,0.0,0.0,73,0.00,,---,0.00,VWS V12.08,2013-03-03 12:37:00,
2013-03-03 06:42:00,21.1,13.8,29.37,NNW,348,0.0,0.0,73,0.00,,---,0.00,VWS V12.08,2013-03-03 12:42:00,
2013-03-03 06:48:00,21.0,13.7,29.37,NNW,348,0.0,0.0,73,0.00,,---,0.00,VWS V12.08,2013-03-03 12:48:00,
2013-03-03 06:54:00,20.9,13.6,29.37,NNW,348,0.0,0.0,73,0.00,,---,0.00,VWS V12.08,2013-03-03 12:54:00,
2013-03-03 06:59:00,20.9,13.9,29.37,NNW,348,0.0,0.0,74,0.00,,---,0.00,VWS V12.08,2013-03-03 12:59:00,
2013-03-03 07:04:00,20.9,13.9,29.37,NNW,348,0.0,0.0,74,0.00,,---,0.00,VWS V12.08,2013-03-03 13:04:00,
2013-03-03 07:09:00,21.0,14.0,29.37,NNW,348,0.0,0.0,74,0.00,,---,0.00,VWS V12.08,2013-03-03 13:09:00,
2013-03-03 07:14:00,21.1,14.1,29.37,NNW,348,0.0,0.0,74,0.00,,---,0.00,VWS V12.08,2013-03-03 13:14:00,
2013-03-03 07:19:00,21.1,14.1,29.37,NNW,348,0.0,0.0,74,0.00,,---,0.00,VWS V12.08,2013-03-03 13:19:00,
2013-03-03 07:24:00,21.2,14.5,29.37,NNW,348,0.0,0.0,75,0.00,,---,0.00,VWS V12.08,2013-03-03 13:24:00,
2013-03-03 07:30:00,21.2,14.2,29.36,NNW,348,0.0,0.0,74,0.00,,---,0.00,VWS V12.08,2013-03-03 13:30:00,
2013-03-03 07:35:00,21.4,14.7,29.37,NNW,348,0.0,0.0,75,0.00,,---,0.00,VWS V12.08,2013-03-03 13:35:00,
2013-03-03 07:41:00,21.5,14.8,29.36,NNW,348,0.0,0.0,75,0.00,,---,0.00,VWS V12.08,2013-03-03 13:41:00,
2013-03-03 07:46:00,21.5,14.8,29.37,NNW,348,0.0,0.0,75,0.00,,---,0.00,VWS V12.08,2013-03-03 13:46:00,
2013-03-03 07:52:00,21.6,14.6,29.37,NNW,348,0.0,0.0,74,0.00,,---,0.00,VWS V12.08,2013-03-03 13:52:00,
2013-03-03 07:57:00,21.8,14.8,29.36,NNW,348,0.0,0.0,74,0.00,,---,0.00,VWS V12.08,2013-03-03 13:57:00,
2013-03-03 08:02:00,21.8,14.8,29.37,NNW,348,0.0,1.0,74,0.00,,---,0.00,VWS V12.08,2013-03-03 14:02:00,
2013-03-03 08:07:00,21.7,14.7,29.36,NNW,348,0.0,1.0,74,0.00,,---,0.00,VWS V12.08,2013-03-03 14:07:00,
2013-03-03 08:13:00,21.7,14.7,29.36,NNW,348,0.0,1.0,74,0.00,,---,0.00,VWS V12.08,2013-03-03 14:13:00,
2013-03-03 08:18:00,21.9,15.2,29.37,NNW,348,0.0,1.0,75,0.00,,---,0.00,VWS V12.08,2013-03-03 14:18:00,
2013-03-03 08:23:00,22.1,15.1,29.36,North,349,0.0,1.0,74,0.00,,---,0.00,VWS V12.08,2013-03-03 14:23:00,
2013-03-03 08:29:00,22.2,15.2,29.36,North,349,0.0,1.0,74,0.00,,---,0.00,VWS V12.08,2013-03-03 14:29:00,
2013-03-03 08:34:00,22.4,15.4,29.36,North,349,0.0,0.0,74,0.00,,---,0.00,VWS V12.08,2013-03-03 14:34:00,
2013-03-03 08:39:00,22.8,15.8,29.36,North,349,0.0,1.0,74,0.00,,---,0.00,VWS V12.08,2013-03-03 14:39:00,
2013-03-03 08:44:00,23.1,16.1,29.36,North,349,0.0,1.0,74,0.00,,---,0.00,VWS V12.08,2013-03-03 14:44:00,
2013-03-03 08:50:00,23.8,16.4,29.36,North,349,0.0,1.0,73,0.00,,---,0.00,VWS V12.08,2013-03-03 14:50:00,
2013-03-03 08:55:00,24.0,16.3,29.36,North,349,0.0,1.0,72,0.00,,---,0.00,VWS V12.08,2013-03-03 14:55:00,
2013-03-03 09:00:00,23.8,16.1,29.36,North,349,0.0,0.0,72,0.00,,---,0.00,VWS V12.08,2013-03-03 15:00:00,
2013-03-03 09:05:00,24.4,16.7,29.35,North,349,0.0,1.0,72,0.00,,---,0.00,VWS V12.08,2013-03-03 15:05:00,
2013-03-03 09:11:00,24.6,16.5,29.36,North,349,0.0,1.0,71,0.00,,---,0.00,VWS V12.08,2013-03-03 15:11:00,
2013-03-03 09:16:00,24.9,16.8,29.35,North,349,0.0,1.0,71,0.00,,---,0.00,VWS V12.08,2013-03-03 15:16:00,
2013-03-03 09:22:00,25.3,16.9,29.35,North,349,0.0,1.0,70,0.00,,---,0.00,VWS V12.08,2013-03-03 15:22:00,
2013-03-03 09:28:00,25.2,16.8,29.35,North,350,0.0,1.0,70,0.00,,---,0.00,VWS V12.08,2013-03-03 15:28:00,
2013-03-03 09:33:00,24.8,16.4,29.35,North,350,0.0,1.0,70,0.00,,---,0.00,VWS V12.08,2013-03-03 15:33:00,
2013-03-03 09:39:00,25.1,16.7,29.35,North,350,0.0,1.0,70,0.00,,---,0.00,VWS V12.08,2013-03-03 15:39:00,
2013-03-03 09:44:00,25.2,16.8,29.35,North,350,0.0,1.0,70,0.00,,---,0.00,VWS V12.08,2013-03-03 15:44:00,
2013-03-03 09:49:00,25.4,16.7,29.35,North,350,0.0,1.0,69,0.00,,---,0.00,VWS V12.08,2013-03-03 15:49:00,
2013-03-03 09:54:00,25.5,16.8,29.35,North,350,0.0,1.0,69,0.00,,---,0.00,VWS V12.08,2013-03-03 15:54:00,
2013-03-03 10:00:00,25.7,17.0,29.35,North,350,0.0,1.0,69,0.00,,---,0.00,VWS V12.08,2013-03-03 16:00:00,
2013-03-03 10:05:00,26.0,17.2,29.35,North,350,0.0,1.0,69,0.00,,---,0.00,VWS V12.08,2013-03-03 16:05:00,
2013-03-03 10:10:00,26.5,17.7,29.35,North,350,0.0,4.0,69,0.00,,---,0.00,VWS V12.08,2013-03-03 16:10:00,
2013-03-03 10:16:00,26.5,17.4,29.35,North,350,0.0,4.0,68,0.00,,---,0.00,VWS V12.08,2013-03-03 16:16:00,
2013-03-03 10:21:00,26.7,17.6,29.35,North,350,0.0,4.0,68,0.00,,---,0.00,VWS V12.08,2013-03-03 16:21:00,
2013-03-03 10:26:00,26.8,17.7,29.35,North,350,0.0,4.0,68,0.00,,---,0.00,VWS V12.08,2013-03-03 16:26:00,
2013-03-03 10:32:00,26.9,17.8,29.34,North,350,0.0,1.0,68,0.00,,---,0.00,VWS V12.08,2013-03-03 16:32:00,
2013-03-03 10:37:00,27.3,18.1,29.34,North,350,0.0,1.0,68,0.00,,---,0.00,VWS V12.08,2013-03-03 16:37:00,
2013-03-03 10:43:00,27.3,18.1,29.34,North,350,0.0,1.0,68,0.00,,---,0.00,VWS V12.08,2013-03-03 16:43:00,
2013-03-03 10:49:00,27.3,18.5,29.34,North,350,0.0,1.0,69,0.00,,---,0.00,VWS V12.08,2013-03-03 16:49:00,
2013-03-03 10:54:00,27.4,18.2,29.33,North,350,0.0,1.0,68,0.00,,---,0.00,VWS V12.08,2013-03-03 16:54:00,
2013-03-03 10:59:00,27.3,18.1,29.34,North,350,0.0,1.0,68,0.00,,---,0.00,VWS V12.08,2013-03-03 16:59:00,
2013-03-03 11:05:00,27.2,18.4,29.34,North,350,0.0,2.0,69,0.00,,---,0.00,VWS V12.08,2013-03-03 17:05:00,
2013-03-03 11:10:00,27.2,18.4,29.34,North,350,0.0,2.0,69,0.00,,---,0.00,VWS V12.08,2013-03-03 17:10:00,
2013-03-03 11:15:00,27.5,18.7,29.34,North,350,0.0,2.0,69,0.00,,---,0.00,VWS V12.08,2013-03-03 17:15:00,
2013-03-03 11:20:00,27.6,18.4,29.34,North,350,0.0,2.0,68,0.00,,---,0.00,VWS V12.08,2013-03-03 17:20:00,
2013-03-03 11:26:00,27.9,18.7,29.34,North,350,0.0,2.0,68,0.00,,---,0.00,VWS V12.08,2013-03-03 17:26:00,
2013-03-03 11:31:00,28.0,18.8,29.34,North,350,0.0,1.0,68,0.00,,---,0.00,VWS V12.08,2013-03-03 17:31:00,
2013-03-03 11:36:00,28.3,19.1,29.34,North,350,0.0,1.0,68,0.00,,---,0.00,VWS V12.08,2013-03-03 17:36:00,
2013-03-03 11:42:00,28.1,18.6,29.33,North,350,0.0,2.0,67,0.00,,---,0.00,VWS V12.08,2013-03-03 17:42:00,
2013-03-03 11:47:00,28.3,18.8,29.33,North,350,0.0,2.0,67,0.00,,---,0.00,VWS V12.08,2013-03-03 17:47:00,
2013-03-03 11:52:00,28.7,19.1,29.33,North,350,0.0,2.0,67,0.00,,---,0.00,VWS V12.08,2013-03-03 17:52:00,
2013-03-03 11:57:00,28.9,19.0,29.33,North,350,0.0,2.0,66,0.00,,---,0.00,VWS V12.08,2013-03-03 17:57:00,
2013-03-03 12:02:00,28.8,18.9,29.32,North,350,0.0,0.0,66,0.00,,---,0.00,VWS V12.08,2013-03-03 18:02:00,
2013-03-03 12:08:00,29.0,19.1,29.32,North,350,0.0,1.0,66,0.00,,---,0.00,VWS V12.08,2013-03-03 18:08:00,
2013-03-03 12:13:00,29.1,18.8,29.32,North,350,0.0,1.0,65,0.00,,---,0.00,VWS V12.08,2013-03-03 18:13:00,
2013-03-03 12:18:00,28.8,18.5,29.32,North,350,0.0,2.0,65,0.00,,---,0.00,VWS V12.08,2013-03-03 18:18:00,
2013-03-03 12:23:00,29.0,19.1,29.32,North,350,0.0,2.0,66,0.00,,---,0.00,VWS V12.08,2013-03-03 18:23:00,
2013-03-03 12:28:00,29.1,19.2,29.31,North,350,0.0,2.0,66,0.00,,---,0.00,VWS V12.08,2013-03-03 18:28:00,
2013-03-03 12:35:00,29.3,19.4,29.30,North,350,0.0,1.0,66,0.00,,---,0.00,VWS V12.08,2013-03-03 18:35:00,
2013-03-03 12:41:00,29.5,19.6,29.31,North,350,0.0,2.0,66,0.00,,---,0.00,VWS V12.08,2013-03-03 18:41:00,
2013-03-03 12:46:00,29.6,19.3,29.31,North,350,1.0,2.0,65,0.00,,---,0.00,VWS V12.08,2013-03-03 18:46:00,
2013-03-03 12:51:00,29.7,19.8,29.30,North,350,1.0,2.0,66,0.00,,---,0.00,VWS V12.08,2013-03-03 18:51:00,
2013-03-03 12:56:00,29.9,19.6,29.30,North,350,0.0,2.0,65,0.00,,---,0.00,VWS V12.08,2013-03-03 18:56:00,
2013-03-03 13:01:00,29.6,18.9,29.30,North,350,0.0,1.0,64,0.00,,---,0.00,VWS V12.08,2013-03-03 19:01:00,
2013-03-03 13:07:00,29.8,19.5,29.29,North,350,0.0,2.0,65,0.01,,---,0.01,VWS V12.08,2013-03-03 19:07:00,
2013-03-03 13:12:00,30.1,19.8,29.28,North,0,0.0,10.0,65,0.01,,---,0.01,VWS V12.08,2013-03-03 19:12:00,
2013-03-03 13:17:00,30.3,20.0,29.28,North,0,0.0,10.0,65,0.01,,---,0.01,VWS V12.08,2013-03-03 19:17:00,
2013-03-03 13:22:00,30.5,20.1,29.28,North,0,0.0,10.0,65,0.01,,---,0.01,VWS V12.08,2013-03-03 19:22:00,
2013-03-03 13:27:00,30.3,19.6,29.28,North,1,0.0,10.0,64,0.01,,---,0.01,VWS V12.08,2013-03-03 19:27:00,
2013-03-03 13:32:00,30.5,20.1,29.28,North,1,1.0,1.0,65,0.01,,---,0.01,VWS V12.08,2013-03-03 19:32:00,
2013-03-03 13:39:00,30.8,20.1,29.28,North,1,0.0,1.0,64,0.01,,---,0.01,VWS V12.08,2013-03-03 19:39:00,
2013-03-03 13:45:00,31.1,20.4,29.27,North,1,0.0,1.0,64,0.01,,---,0.01,VWS V12.08,2013-03-03 19:45:00,
2013-03-03 13:50:00,31.1,20.4,29.27,North,1,0.0,1.0,64,0.01,,---,0.01,VWS V12.08,2013-03-03 19:50:00,
2013-03-03 13:56:00,31.1,20.4,29.27,North,1,0.0,1.0,64,0.01,,---,0.01,VWS V12.08,2013-03-03 19:56:00,
2013-03-03 14:01:00,31.5,20.7,29.27,North,1,0.0,1.0,64,0.01,,---,0.01,VWS V12.08,2013-03-03 20:01:00,
2013-03-03 14:10:00,31.1,20.0,29.27,North,1,1.0,2.0,63,0.01,,---,0.01,VWS V12.08,2013-03-03 20:10:00,
2013-03-03 14:15:00,31.4,20.6,29.26,North,1,0.0,2.0,64,0.01,,---,0.01,VWS V12.08,2013-03-03 20:15:00,
2013-03-03 14:20:00,31.3,20.2,29.25,North,1,0.0,2.0,63,0.01,,---,0.01,VWS V12.08,2013-03-03 20:20:00,
2013-03-03 14:25:00,31.7,20.6,29.26,North,1,0.0,2.0,63,0.01,,---,0.01,VWS V12.08,2013-03-03 20:25:00,
2013-03-03 14:32:00,31.8,20.3,29.25,North,3,0.0,1.0,62,0.00,,---,0.01,VWS V12.08,2013-03-03 20:32:00,
2013-03-03 14:38:00,31.2,19.3,29.25,East,90,6.0,10.0,61,0.00,,---,0.01,VWS V12.08,2013-03-03 20:38:00,
2013-03-03 14:44:00,31.5,20.4,29.25,East,91,6.0,10.0,63,0.00,,---,0.01,VWS V12.08,2013-03-03 20:44:00,
2013-03-03 14:49:00,31.4,20.3,29.25,ESE,110,0.0,10.0,63,0.00,,---,0.01,VWS V12.08,2013-03-03 20:49:00,
2013-03-03 14:56:00,31.6,20.1,29.25,ESE,112,0.0,10.0,62,0.00,,---,0.01,VWS V12.08,2013-03-03 20:56:00,
2013-03-03 15:09:00,31.6,20.1,29.25,ESE,110,0.0,1.0,62,0.00,,---,0.01,VWS V12.08,2013-03-03 21:09:00,
2013-03-03 15:15:00,31.4,20.3,29.25,ESE,110,0.0,2.0,63,0.00,,---,0.01,VWS V12.08,2013-03-03 21:15:00,
2013-03-03 15:21:00,31.3,20.5,29.25,ESE,111,0.0,2.0,64,0.00,,---,0.01,VWS V12.08,2013-03-03 21:21:00,
2013-03-03 15:26:00,31.3,20.2,29.25,ESE,112,0.0,2.0,63,0.00,,---,0.01,VWS V12.08,2013-03-03 21:26:00,
2013-03-03 15:31:00,31.3,20.2,29.25,ESE,112,1.0,1.0,63,0.00,,---,0.01,VWS V12.08,2013-03-03 21:31:00,
2013-03-03 15:36:00,31.5,20.7,29.24,ESE,113,0.0,1.0,64,0.00,,---,0.01,VWS V12.08,2013-03-03 21:36:00,
2013-03-03 15:41:00,31.6,20.8,29.24,ESE,113,0.0,1.0,64,0.00,,---,0.01,VWS V12.08,2013-03-03 21:41:00,
2013-03-03 15:47:00,31.6,20.8,29.24,ESE,113,0.0,1.0,64,0.00,,---,0.01,VWS V12.08,2013-03-03 21:47:00,
2013-03-03 15:52:00,31.5,20.7,29.24,ESE,113,0.0,5.0,64,0.00,,---,0.01,VWS V12.08,2013-03-03 21:52:00,
2013-03-03 15:58:00,31.4,20.6,29.24,ESE,113,0.0,5.0,64,0.00,,---,0.01,VWS V12.08,2013-03-03 21:58:00,
2013-03-03 16:03:00,31.3,20.5,29.24,ESE,114,0.0,2.0,64,0.00,,---,0.01,VWS V12.08,2013-03-03 22:03:00,
2013-03-03 16:09:00,31.3,20.5,29.24,ESE,114,0.0,2.0,64,0.00,,---,0.01,VWS V12.08,2013-03-03 22:09:00,
2013-03-03 16:14:00,31.5,20.7,29.24,ESE,115,0.0,2.0,64,0.00,,---,0.01,VWS V12.08,2013-03-03 22:14:00,
2013-03-03 16:19:00,31.5,20.7,29.24,ESE,114,0.0,2.0,64,0.00,,---,0.01,VWS V12.08,2013-03-03 22:19:00,
2013-03-03 16:25:00,31.6,20.8,29.24,ESE,114,0.0,2.0,64,0.00,,---,0.01,VWS V12.08,2013-03-03 22:25:00,
2013-03-03 16:30:00,31.6,20.8,29.24,ESE,114,0.0,1.0,64,0.00,,---,0.01,VWS V12.08,2013-03-03 22:30:00,
2013-03-03 16:36:00,31.5,20.4,29.24,ESE,114,0.0,2.0,63,0.00,,---,0.01,VWS V12.08,2013-03-03 22:36:00,
2013-03-03 16:42:00,31.4,20.3,29.24,ESE,115,0.0,2.0,63,0.00,,---,0.01,VWS V12.08,2013-03-03 22:42:00,
2013-03-03 16:48:00,31.3,20.2,29.23,ESE,115,0.0,2.0,63,0.00,,---,0.01,VWS V12.08,2013-03-03 22:48:00,
2013-03-03 16:53:00,31.2,20.1,29.23,ESE,115,0.0,2.0,63,0.00,,---,0.01,VWS V12.08,2013-03-03 22:53:00,
2013-03-03 16:59:00,31.2,20.5,29.24,ESE,115,0.0,2.0,64,0.00,,---,0.01,VWS V12.08,2013-03-03 22:59:00,
2013-03-03 17:04:00,31.2,20.5,29.24,ESE,116,0.0,1.0,64,0.00,,---,0.01,VWS V12.08,2013-03-03 23:04:00,
2013-03-03 17:10:00,31.0,20.3,29.23,ESE,116,1.0,2.0,64,0.00,,---,0.01,VWS V12.08,2013-03-03 23:10:00,
2013-03-03 17:15:00,31.0,20.6,29.23,ESE,116,0.0,2.0,65,0.00,,---,0.01,VWS V12.08,2013-03-03 23:15:00,
2013-03-03 17:21:00,31.0,20.6,29.23,ESE,116,0.0,2.0,65,0.00,,---,0.01,VWS V12.08,2013-03-03 23:21:00,
2013-03-03 17:26:00,30.9,20.9,29.23,ESE,116,0.0,2.0,66,0.00,,---,0.01,VWS V12.08,2013-03-03 23:26:00,
2013-03-03 17:31:00,30.8,20.8,29.23,ESE,116,0.0,1.0,66,0.00,,---,0.01,VWS V12.08,2013-03-03 23:31:00,
2013-03-03 17:36:00,30.7,21.1,29.23,ESE,117,1.0,1.0,67,0.00,,---,0.01,VWS V12.08,2013-03-03 23:36:00,
2013-03-03 17:42:00,30.7,21.1,29.23,ESE,117,0.0,1.0,67,0.00,,---,0.01,VWS V12.08,2013-03-03 23:42:00,
2013-03-03 17:47:00,30.6,21.0,29.23,ESE,117,0.0,1.0,67,0.00,,---,0.01,VWS V12.08,2013-03-03 23:47:00,
2013-03-03 17:53:00,30.5,20.9,29.22,ESE,117,0.0,1.0,67,0.00,,---,0.01,VWS V12.08,2013-03-03 23:53:00,
2013-03-03 17:58:00,30.4,20.8,29.22,ESE,117,0.0,1.0,67,0.00,,---,0.01,VWS V12.08,2013-03-03 23:58:00,
2013-03-03 18:03:00,30.3,20.7,29.22,ESE,118,0.0,2.0,67,0.00,,---,0.01,VWS V12.08,2013-03-04 00:03:00,
2013-03-03 18:08:00,30.2,20.6,29.22,ESE,116,0.0,2.0,67,0.00,,---,0.01,VWS V12.08,2013-03-04 00:08:00,
2013-03-03 18:13:00,30.2,20.6,29.22,ESE,116,0.0,2.0,67,0.00,,---,0.01,VWS V12.08,2013-03-04 00:13:00,
2013-03-03 18:19:00,30.0,20.4,29.22,ESE,117,1.0,2.0,67,0.00,,---,0.01,VWS V12.08,2013-03-04 00:19:00,
2013-03-03 18:24:00,29.9,20.3,29.22,ESE,117,0.0,2.0,67,0.00,,---,0.01,VWS V12.08,2013-03-04 00:24:00,
2013-03-03 18:30:00,29.8,20.2,29.22,ESE,117,0.0,3.0,67,0.00,,---,0.01,VWS V12.08,2013-03-04 00:30:00,
2013-03-03 18:35:00,29.8,20.2,29.21,ESE,117,0.0,1.0,67,0.00,,---,0.01,VWS V12.08,2013-03-04 00:35:00,
2013-03-03 18:40:00,29.7,20.1,29.22,ESE,117,0.0,2.0,67,0.00,,---,0.01,VWS V12.08,2013-03-04 00:40:00,
2013-03-03 18:46:00,29.7,20.1,29.22,ESE,118,0.0,2.0,67,0.00,,---,0.01,VWS V12.08,2013-03-04 00:46:00,
2013-03-03 18:51:00,29.6,20.0,29.21,ESE,117,0.0,2.0,67,0.00,,---,0.01,VWS V12.08,2013-03-04 00:51:00,
2013-03-03 18:57:00,29.5,20.3,29.22,ESE,118,1.0,3.0,68,0.00,,---,0.01,VWS V12.08,2013-03-04 00:57:00,
2013-03-03 19:02:00,29.5,20.3,29.22,ESE,118,0.0,1.0,68,0.00,,---,0.01,VWS V12.08,2013-03-04 01:02:00,
2013-03-03 19:08:00,29.5,20.3,29.21,ESE,118,1.0,2.0,68,0.00,,---,0.01,VWS V12.08,2013-03-04 01:08:00,
2013-03-03 19:14:00,29.5,20.3,29.22,ESE,118,0.0,2.0,68,0.00,,---,0.01,VWS V12.08,2013-03-04 01:14:00,
2013-03-03 19:19:00,29.4,20.2,29.22,ESE,118,0.0,2.0,68,0.00,,---,0.01,VWS V12.08,2013-03-04 01:19:00,
2013-03-03 19:25:00,29.3,20.1,29.22,ESE,118,0.0,2.0,68,0.00,,---,0.01,VWS V12.08,2013-03-04 01:25:00,
2013-03-03 19:30:00,29.3,20.1,29.22,ESE,118,0.0,1.0,68,0.00,,---,0.01,VWS V12.08,2013-03-04 01:30:00,
2013-03-03 19:36:00,29.2,20.0,29.23,ESE,118,0.0,1.0,68,0.00,,---,0.01,VWS V12.08,2013-03-04 01:36:00,
2013-03-03 19:41:00,29.1,19.9,29.22,ESE,118,0.0,1.0,68,0.00,,---,0.01,VWS V12.08,2013-03-04 01:41:00,
2013-03-03 19:47:00,29.1,19.9,29.23,ESE,119,0.0,1.0,68,0.00,,---,0.01,VWS V12.08,2013-03-04 01:47:00,
2013-03-03 19:52:00,29.0,19.8,29.23,ESE,119,0.0,1.0,68,0.00,,---,0.01,VWS V12.08,2013-03-04 01:52:00,
2013-03-03 19:58:00,28.8,19.6,29.23,ESE,118,0.0,1.0,68,0.00,,---,0.01,VWS V12.08,2013-03-04 01:58:00,
2013-03-03 20:03:00,28.9,19.3,29.23,ESE,119,0.0,1.0,67,0.00,,---,0.01,VWS V12.08,2013-03-04 02:03:00,
2013-03-03 20:09:00,28.8,18.9,29.23,ESE,119,0.0,1.0,66,0.00,,---,0.01,VWS V12.08,2013-03-04 02:09:00,
2013-03-03 20:15:00,28.8,18.5,29.22,ESE,119,0.0,1.0,65,0.00,,---,0.01,VWS V12.08,2013-03-04 02:15:00,
2013-03-03 20:20:00,28.8,18.5,29.22,ESE,120,0.0,1.0,65,0.00,,---,0.01,VWS V12.08,2013-03-04 02:20:00,
2013-03-03 20:28:00,28.6,18.7,29.22,ESE,119,0.0,1.0,66,0.00,,---,0.01,VWS V12.08,2013-03-04 02:28:00,
2013-03-03 20:33:00,28.7,18.8,29.22,ESE,120,0.0,1.0,66,0.00,,---,0.01,VWS V12.08,2013-03-04 02:33:00,
2013-03-03 20:38:00,28.6,18.7,29.22,ESE,120,0.0,1.0,66,0.00,,---,0.01,VWS V12.08,2013-03-04 02:38:00,
2013-03-03 20:43:00,28.6,18.7,29.22,ESE,120,0.0,1.0,66,0.00,,---,0.01,VWS V12.08,2013-03-04 02:43:00,
2013-03-03 20:48:00,28.6,19.0,29.22,ESE,122,0.0,2.0,67,0.00,,---,0.01,VWS V12.08,2013-03-04 02:48:00,
2013-03-03 20:53:00,28.6,19.0,29.23,ESE,121,0.0,2.0,67,0.00,,---,0.01,VWS V12.08,2013-03-04 02:53:00,
2013-03-03 20:58:00,28.6,18.7,29.22,ESE,121,0.0,2.0,66,0.00,,---,0.01,VWS V12.08,2013-03-04 02:58:00,
2013-03-03 21:04:00,28.6,18.7,29.22,ESE,121,0.0,1.0,66,0.00,,---,0.01,VWS V12.08,2013-03-04 03:04:00,
2013-03-03 21:09:00,28.6,18.7,29.22,ESE,121,0.0,1.0,66,0.00,,---,0.01,VWS V12.08,2013-03-04 03:09:00,
2013-03-03 21:15:00,28.6,18.7,29.22,ESE,122,0.0,2.0,66,0.00,,---,0.01,VWS V12.08,2013-03-04 03:15:00,
2013-03-03 21:21:00,28.6,18.7,29.21,ESE,122,0.0,2.0,66,0.00,,---,0.01,VWS V12.08,2013-03-04 03:21:00,
2013-03-03 21:27:00,28.6,18.7,29.22,ESE,121,0.0,2.0,66,0.00,,---,0.01,VWS V12.08,2013-03-04 03:27:00,
2013-03-03 21:32:00,28.6,18.7,29.21,ESE,121,0.0,1.0,66,0.00,,---,0.01,VWS V12.08,2013-03-04 03:32:00,
2013-03-03 21:37:00,28.7,18.8,29.22,ESE,121,0.0,1.0,66,0.00,,---,0.01,VWS V12.08,2013-03-04 03:37:00,
2013-03-03 21:42:00,28.7,18.8,29.22,ESE,122,0.0,1.0,66,0.00,,---,0.01,VWS V12.08,2013-03-04 03:42:00,
2013-03-03 21:47:00,28.7,18.8,29.22,ESE,121,0.0,2.0,66,0.00,,---,0.01,VWS V12.08,2013-03-04 03:47:00,
2013-03-03 21:53:00,28.7,18.8,29.21,ESE,121,0.0,2.0,66,0.00,,---,0.01,VWS V12.08,2013-03-04 03:53:00,
2013-03-03 21:59:00,28.7,19.1,29.22,ESE,121,0.0,2.0,67,0.00,,---,0.01,VWS V12.08,2013-03-04 03:59:00,
2013-03-03 22:04:00,28.7,19.1,29.22,ESE,122,0.0,1.0,67,0.00,,---,0.01,VWS V12.08,2013-03-04 04:04:00,
2013-03-03 22:09:00,28.7,19.1,29.22,ESE,122,0.0,1.0,67,0.00,,---,0.01,VWS V12.08,2013-03-04 04:09:00,
2013-03-03 22:14:00,28.6,19.0,29.22,ESE,122,0.0,1.0,67,0.00,,---,0.01,VWS V12.08,2013-03-04 04:14:00,
2013-03-03 22:20:00,28.6,19.4,29.22,ESE,122,0.0,1.0,68,0.00,,---,0.01,VWS V12.08,2013-03-04 04:20:00,
2013-03-03 22:26:00,28.6,19.4,29.22,ESE,122,0.0,1.0,68,0.00,,---,0.01,VWS V12.08,2013-03-04 04:26:00,
2013-03-03 22:31:00,28.6,19.4,29.23,ESE,122,0.0,1.0,68,0.00,,---,0.01,VWS V12.08,2013-03-04 04:31:00,
2013-03-03 22:36:00,28.7,19.5,29.23,ESE,123,0.0,1.0,68,0.00,,---,0.01,VWS V12.08,2013-03-04 04:36:00,
2013-03-03 22:41:00,28.8,19.2,29.23,ESE,123,0.0,1.0,67,0.00,,---,0.01,VWS V12.08,2013-03-04 04:41:00,
2013-03-03 22:47:00,28.7,19.1,29.23,ESE,123,0.0,1.0,67,0.00,,---,0.01,VWS V12.08,2013-03-04 04:47:00,
2013-03-03 22:52:00,28.7,19.1,29.23,ESE,123,0.0,1.0,67,0.00,,---,0.01,VWS V12.08,2013-03-04 04:52:00,
2013-03-03 22:59:00,28.7,19.1,29.23,ESE,123,0.0,1.0,67,0.00,,---,0.01,VWS V12.08,2013-03-04 04:59:00,
2013-03-03 23:00:00,28.7,19.1,29.23,ESE,123,0.0,1.0,67,0.00,,---,0.01,VWS V12.08,2013-03-04 05:00:00,
2013-03-03 23:01:00,28.7,19.1,29.23,ESE,123,0.0,0.0,67,0.00,,---,0.01,VWS V12.08,2013-03-04 05:01:00,
2013-03-03 23:02:00,28.7,19.1,29.23,ESE,123,0.0,0.0,67,0.00,,---,0.01,VWS V12.08,2013-03-04 05:02:00,
2013-03-03 23:05:00,28.7,19.1,29.23,ESE,123,0.0,0.0,67,0.00,,---,0.01,VWS V12.08,2013-03-04 05:05:00,
2013-03-03 23:10:00,28.6,19.4,29.23,SE,124,0.0,0.0,68,0.00,,---,0.01,VWS V12.08,2013-03-04 05:10:00,
2013-03-03 23:16:00,28.6,19.4,29.23,SE,124,0.0,0.0,68,0.00,,---,0.01,VWS V12.08,2013-03-04 05:16:00,
2013-03-03 23:21:00,28.5,19.3,29.22,SE,124,0.0,0.0,68,0.00,,---,0.01,VWS V12.08,2013-03-04 05:21:00,
2013-03-03 23:26:00,28.4,19.2,29.23,SE,124,0.0,0.0,68,0.00,,---,0.01,VWS V12.08,2013-03-04 05:26:00,
2013-03-03 23:31:00,28.3,19.8,29.22,SE,124,0.0,0.0,70,0.00,,---,0.01,VWS V12.08,2013-03-04 05:31:00,
2013-03-03 23:37:00,27.9,19.7,29.22,SE,124,0.0,0.0,71,0.00,,---,0.01,VWS V12.08,2013-03-04 05:37:00,
2013-03-03 23:42:00,27.6,19.8,29.21,SE,124,1.0,1.0,72,0.00,,---,0.01,VWS V12.08,2013-03-04 05:42:00,
2013-03-03 23:48:00,27.3,20.1,29.21,ESE,119,0.0,8.0,74,0.00,,---,0.01,VWS V12.08,2013-03-04 05:48:00,
2013-03-03 23:54:00,27.0,20.5,29.21,ESE,121,0.0,8.0,76,0.00,,---,0.01,VWS V12.08,2013-03-04 05:54:00,
2013-03-03 23:59:00,26.7,20.5,29.20,ESE,119,1.0,8.0,77,0.00,,---,0.01,VWS V12.08,2013-03-04 05:59:00,